Location: Tel Aviv-Yafo
(32.0678°N, 34.7647°E)
Time: 05:50:37
(UTC+03:00)

Daily predictions for brighter satellites

Satellite Brightness Start Highest point End
(mag) Time Altitude Azimuth Time Altitude Azimuth Time Altitude Azimuth
Cosmos 2297 Rocket 4.3 00:38:54 10° NNE 00:42:06 19° NE 00:42:06 19° NE
COSMOS 2455 4.5 00:38:05 10° N 00:42:04 28° NE 00:42:04 28° NE
Resurs 1-4 Rocket 4.4 01:13:43 10° NE 01:15:27 17° ENE 01:15:27 17° ENE
CZ-2D R/B 4.3 01:19:43 10° NE 01:21:51 19° ENE 01:21:51 19° ENE
Lacrosse 4 Rocket 4.2 01:42:11 17° NNE 01:42:11 17° NNE 01:43:16 10° NNE
Cosmos 1697 Rocket 3.9 01:52:02 37° N 01:52:02 37° N 01:55:24 10° NNE
Cosmos 1980 Rocket 3.1 02:05:54 45° NE 02:05:54 45° NE 02:09:46 10° NNE
Cosmos 2227 Rocket 3.6 02:19:43 10° NNW 02:22:32 30° NW 02:22:32 30° NW
Cosmos 2297 Rocket 4.0 02:21:51 10° NNW 02:23:53 22° NW 02:23:53 22° NW
Meteor 2-5 Rocket 4.3 02:28:14 53° ENE 02:28:14 53° ENE 02:33:07 10° NNE
Cosmos 2278 4.2 02:34:52 55° NNW 02:34:52 55° NNW 02:39:27 10° NNE
SL-16 R/B 2.5 02:34:51 82° NE 02:34:51 82° NE 02:40:56 10° NNW
ADEOS II 2.7 02:31:11 10° NNE 02:35:37 53° ENE 02:35:37 53° ENE
Atlas Centaur 2 3.1 02:38:33 57° SSE 02:38:33 57° SSE 02:45:25 10° E
NOSS 3-2 (A) 3.7 02:42:25 49° E 02:42:25 49° E 02:47:38 10° NE
Cosmos 1725 Rocket 4.2 02:36:56 10° N 02:42:14 61° NW 02:42:14 61° NW
Cosmos 2082 4.0 02:38:00 10° NNW 02:42:46 63° NNW 02:42:46 63° NNW
SL-16 R/B 3.0 02:44:33 40° ESE 02:44:44 41° ESE 02:50:00 10° NE
Cosmos 1452 Rocket 4.0 02:47:23 53° E 02:47:23 53° E 02:52:09 10° NNE
Cosmos 2233 Rocket 3.9 02:41:13 10° N 02:47:24 79° E 02:47:41 77° ESE
SEDSat Delta rocket 4.4 02:52:29 42° ESE 02:52:29 42° ESE 02:56:19 10° E
USA 281 3.0 02:51:32 75° WSW 02:51:32 75° WSW 02:58:06 10° NNW
Resurs 1-4 Rocket 3.3 02:52:53 10° N 02:56:32 31° NW 02:56:32 31° NW
USA 238 DEB 3.9 02:57:02 50° SE 02:58:00 54° ESE 03:04:28 10° NE
USA 238 3.9 02:57:08 49° SE 02:58:06 53° ESE 03:04:33 10° NE
BREEZE-M DEB (TANK) 4.2 03:00:06 23° N 03:00:06 23° N 03:01:22 10° NNE
Cosmos 1140 Rocket 4.3 02:56:32 10° NNW 03:00:01 41° NW 03:00:01 41° NW
CZ-2D R/B 3.4 02:59:26 10° N 03:03:10 29° NW 03:03:10 29° NW
USA 215 3.1 02:57:41 10° SE 03:04:14 89° NNE 03:10:47 10° NW
CENTAUR R/B 2.6 03:06:19 50° SE 03:07:03 54° ESE 03:13:13 10° NE
Cosmos 2322 Rocket 2.7 03:08:19 46° SE 03:09:19 52° ESE 03:14:49 10° NNE
GP-B 3.9 03:09:01 10° N 03:12:11 43° NNW 03:12:11 43° NNW
Cosmos 2263 Rocket 3.1 03:08:20 10° N 03:13:48 47° ENE 03:19:15 10° SE
IRS-1D 3.7 03:20:46 10° N 03:25:58 55° WNW 03:26:15 54° W
Meteor 1-28 Rocket 3.8 03:29:48 48° NNW 03:29:48 48° NNW 03:32:34 10° NNW
Cosmos 2360 Rocket 3.1 03:27:00 27° SSE 03:29:28 42° ESE 03:34:46 10° NE
OAO 2 Rocket 3.6 03:32:03 35° WNW 03:34:16 69° N 03:39:34 10° E
CZ-4B R/B 3.8 03:30:11 10° NNE 03:35:16 65° ESE 03:37:15 37° S
Meteor 1-24 Rocket 4.2 03:35:46 40° W 03:35:56 40° WNW 03:41:00 10° N
Cosmos 1346 Rocket 2.7 03:36:52 84° NNE 03:36:52 84° NNE 03:40:40 10° N
OAO 3 Copernicus 4.5 03:40:30 42° WNW 03:42:07 69° N 03:47:11 10° ENE
Cosmos 389 Rocket 4.3 03:39:44 10° NNE 03:42:47 29° ENE 03:45:19 13° SE
ARIANE 5 R/B 2.5 03:40:29 10° NNE 03:45:35 78° ESE 03:47:40 36° S
SL-08 R/B 4.4 03:41:54 10° SE 03:46:19 43° ENE 03:50:42 10° N
Cosmos 1072 Rocket 4.5 03:41:14 10° N 03:47:37 87° W 03:52:37 18° S
Cosmos 2346 Rocket 4.3 03:45:21 35° SSW 03:48:07 80° W 03:54:10 10° N
Cosmos 1980 Rocket 4.2 03:47:39 12° WNW 03:48:39 13° NW 03:51:11 10° NNW
Cosmos 1892 Rocket 3.4 03:49:21 58° SW 03:49:56 67° W 03:54:15 10° N
ATLAS 2A CENTAUR R/B 2.6 03:49:48 26° SSE 03:49:57 26° SSE 03:55:31 10° E
IDEFIX/ARIANE 42P 2.8 03:45:20 10° N 03:50:26 52° WNW 03:51:46 41° WSW
Cosmos 2237 4.2 03:48:12 36° SSW 03:50:38 85° ESE 03:56:22 10° NNE
IKONOS-2 4.5 03:51:14 56° SW 03:51:43 60° W 03:55:56 10° NNW
MSX 3.8 03:46:47 10° N 03:52:33 74° WNW 03:55:12 34° SSW
IRS-1C 4.1 03:49:20 10° N 03:54:37 66° WNW 03:56:39 37° SW
CZ-2C R/B 3.6 03:51:32 10° NNE 03:56:26 41° E 04:01:16 10° SSE
Cosmos 1891 Rocket 4.3 03:52:40 10° NNW 03:58:39 67° W 04:02:41 21° S
Meteor 1-21 Rocket 4.2 03:56:41 23° S 04:00:19 82° E 04:05:52 10° N
Cosmos 2228 3.4 03:56:36 10° NNW 04:00:40 41° W 04:00:55 41° WSW
ERS-1 4.5 03:58:36 10° N 04:03:42 69° WNW 04:06:16 30° SSW
SL-8 R/B 3.7 04:02:10 38° SSW 04:03:55 72° SE 04:08:39 10° NE
Cosmos 1184 Rocket 3.7 04:04:22 25° SSE 04:05:50 45° E 04:08:54 10° NNE
ISS -2.0 04:07:52 21° SSE 04:07:52 21° SSE 04:09:08 10° SSE
Cosmos 2227 4.1 04:02:55 10° NNW 04:08:29 62° WSW 04:13:59 10° S
CZ-2C R/B 3.8 04:05:18 10° NNE 04:09:12 45° E 04:12:40 12° S
NOSS 3-2 (C) 3.6 04:09:51 29° WSW 04:12:24 52° NW 04:18:17 10° NNE
Cosmos 1726 Rocket 3.8 04:09:07 10° NNW 04:13:22 48° W 04:15:19 28° SSW
Cosmos 1302 Rocket 4.2 04:09:40 19° S 04:13:32 74° ESE 04:18:49 10° NNE
Cosmos 1606 Rocket 4.2 04:10:54 10° NNW 04:14:55 35° W 04:15:57 31° WSW
ADEOS II 3.9 04:12:53 10° NW 04:15:29 14° WNW 04:16:33 13° WNW
Cosmos 1241 Rocket 4.4 04:11:35 10° NNW 04:17:58 71° WSW 04:24:12 10° SSE
Cosmos 1441 Rocket 3.8 04:14:47 14° S 04:18:04 58° E 04:21:58 10° NNE
SL-16 R/B 4.5 04:19:56 10° W 04:19:56 10° W 04:20:22 10° WNW
PAYLOAD A 3.9 04:14:25 10° NNE 04:19:07 77° ESE 04:23:18 13° S
Okean 1-7 Rocket 3.8 04:17:34 27° SSW 04:19:51 54° W 04:24:20 10° N
Cosmos 1331 Rocket 4.5 04:17:40 27° WSW 04:19:58 43° WNW 04:24:53 10° N
Cosmos 2058 Rocket 3.0 04:16:01 10° N 04:20:32 73° W 04:25:00 10° S
Meteor 2-10 Rocket 4.2 04:15:53 10° NNW 04:20:55 36° W 04:23:38 22° SW
Tsikada Rocket 4.0 04:16:54 14° SSW 04:22:30 73° W 04:28:51 10° N
ADEOS Rocket 4.1 04:19:34 19° SSW 04:24:02 34° W 04:30:57 10° NNW
Atlas Centaur 2 2.8 04:21:07 17° W 04:27:40 79° S 04:34:25 10° E
SL-16 R/B 3.6 04:26:25 17° W 04:28:55 23° WNW 04:33:19 10° N
BREEZE-M DEB (TANK) 3.5 04:19:33 10° NW 04:30:07 81° SW 04:33:22 10° SE
Cosmos 1464 Rocket 4.5 04:25:59 10° NNW 04:31:38 38° W 04:36:56 12° SSW
CZ-2D R/B 4.3 04:30:57 10° N 04:35:03 38° WNW 04:37:45 19° SW
Cosmos 2333 Rocket 2.5 04:29:33 10° S 04:35:16 71° ESE 04:41:00 10° NNE
SEDSat Delta rocket 3.4 04:32:34 16° W 04:37:17 84° S 04:42:17 10° E
Cosmos 1602 Rocket 3.5 04:34:08 10° S 04:38:27 87° W 04:42:51 10° N
Aurora 2 Rocket 4.2 04:35:25 18° SW 04:38:53 35° SSE 04:45:26 10° E
Cosmos 1758 Rocket 4.4 04:36:10 10° S 04:40:28 52° E 04:44:50 10° NNE
Cosmos 2034 Rocket 4.3 04:38:34 10° NNW 04:44:31 45° W 04:50:22 10° SSW
Genesis I 4.4 04:41:19 10° S 04:44:49 37° ESE 04:48:22 10° NE
Cosmos 1626 Rocket 3.8 04:41:16 13° SSW 04:44:59 48° W 04:49:17 10° N
USA 215 4.4 04:43:27 10° SSW 04:47:36 18° WSW 04:51:45 10° W
Aureole 1 Rocket 3.5 04:45:36 10° NNW 04:49:27 44° WSW 04:54:25 10° S
Cosmos 1455 3.5 04:46:36 10° NW 04:49:40 23° W 04:52:05 13° SW
SWIFT 4.1 04:48:43 13° SW 04:50:41 17° S 04:53:26 10° SE
Cosmos 1634 Rocket 4.1 04:44:34 10° N 04:50:48 86° E 04:57:04 10° S
Intelsat 5-3 Rocket 4.2 04:42:08 13° WSW 04:50:51 40° S 04:55:08 10° ESE
ALOS 2.3 04:48:19 10° NNE 04:53:01 89° ESE 04:57:39 10° SSW
Cosmos 2333 4.3 04:47:43 10° SSW 04:53:23 64° WNW 04:59:08 10° NNE
Cosmos 2322 Rocket 3.8 04:50:08 11° W 04:53:38 18° WNW 04:57:29 10° NNW
Cosmos 2263 Rocket 3.5 04:53:31 10° WNW 04:57:15 18° W 05:00:59 10° SW
CENTAUR R/B 4.0 04:53:40 10° W 04:58:09 22° NW 05:03:12 10° N
Cosmos 1844 Rocket 3.0 04:52:41 10° NNW 04:58:21 75° ENE 05:03:59 10° SSE
Cosmos 1408 4.5 05:01:51 10° SSE 05:05:02 31° E 05:08:13 10° NNE
PSLV R/B 3.6 05:01:04 10° N 05:05:13 58° WNW 05:09:22 10° SSW
Cosmos 1892 3.8 05:02:05 10° SSE 05:05:40 46° E 05:09:19 10° NNE
Cosmos 2084 4.3 05:02:10 10° NW 05:06:11 32° WSW 05:10:14 10° S
SL-24 R/B 3.8 05:02:34 10° S 05:06:19 71° W 05:10:29 10° NNW
Cosmos 2219 Rocket 2.3 05:05:26 10° SSW 05:11:01 65° WNW 05:16:41 10° NNE
Meteor 1-11 4.5 05:06:28 10° SSW 05:12:08 56° W 05:17:48 10° N
Cosmos 2360 Rocket 3.6 05:09:16 10° WSW 05:13:34 22° WNW 05:17:53 10° N
Cosmos 2142 Rocket 4.5 05:12:19 10° N 05:18:32 83° W 05:24:39 10° S
